[[{"header":{"parameterUnit":"m.s-1","parameterCategory":2,"la1":30.2991,"la2":30.254,"lo1":-89.0895,"lo2":-89.0444,"dy":0.0017,"dx":0.0017,"nx":28,"ny":28,"refTime":"2025-01-24T09:00:00:Z","depth":"0","parameterNumber":2,"parameterNumberName":"U-component_of_CURRENTS"},"data":[0,0,0,0,0,0,0,0,0,0,0,0,0,0,0,0,0,0,0,0,0,0,0,0,0,0,0,0,0,0,0,0,0,0,0,0,0,0,0,0,0,0,0,0,0,0,0,0,0,0,0,0,0,0,0,0,0,0,-0.2159,-0.2159,0,-0.2175,-0.2175,-0.2175,-0.215,-0.2149,-0.2149,-0.2148,-0.2129,-0.2129,-0.213,0,0,0,0,0,0,0,0,0,0,0,0,0,-0.2071,-0.2073,-0.2159,-0.2159,-0.216,-0.2175,-0.2175,-0.2175,-0.215,-0.2149,-0.2148,-0.2147,-0.2129,-0.2129,-0.213,0,0,0,0,0,0,0,0,0,0,0,0,0,-0.21,-0.2073,-0.2159,-0.215,-0.2149,-0.2175,-0.2175,-0.2175,-0.2151,-0.2149,-0.2148,-0.2147,-0.2129,-0.2129,-0.213,-0.2156,0,0,-0.2131,-0.2131,0,0,0,0,0,0,0,0,-0.2098,-0.2103,-0.2151,-0.215,-0.215,-0.216,-0.2137,-0.2167,-0.2151,-0.2149,-0.2148,-0.2146,-0.2137,-0.2137,-0.2142,-0.2155,-0.2155,-0.2131,-0.2131,-0.2131,-0.2131,0,0,0,0,0,0,0,-0.2096,-0.2102,-0.2165,-0.2151,-0.215,-0.2131,-0.2135,-0.2142,-0.2149,-0.2149,-0.2148,-0.2151,-0.2136,-0.2142,-0.2142,-0.2154,-0.2131,-0.2131,-0.2131,-0.2132,-0.2165,-0.2166,0,0,0,0,0,0,-0.2099,-0.2101,-0.2164,-0.2165,-0.2121,-0.2134,-0.2138,-0.2157,-0.215,-0.2148,-0.2152,-0.2149,-0.2142,-0.2141,-0.2141,-0.2147,-0.2131,-0.2132,-0.2132,-0.2164,-0.2165,-0.2166,0,0,0,0,0,0,-0.2097,-0.2105,-0.2164,-0.2132,-0.2138,-0.2137,-0.2159,-0.2158,-0.2168,-0.2152,-0.2149,-0.2163,-0.2141,-0.214,-0.2138,-0.2147,-0.2132,-0.2132,-0.2163,-0.2165,-0.2165,-0.2175,0,0,0,0,0,0,-0.2095,-0.2105,-0.2119,-0.2133,-0.214,-0.2185,-0.2161,-0.2159,-0.2171,-0.2169,-0.2161,-0.2157,-0.214,-0.2138,-0.2139,-0.2147,-0.2132,-0.2163,-0.2164,-0.2165,-0.2174,-0.2177,-0.2179,0,0,0,0,0,-0.2092,-0.2114,-0.212,-0.2127,-0.2161,-0.2187,-0.2189,-0.2182,-0.2173,-0.2185,-0.2166,-0.2158,-0.2146,-0.2139,-0.214,-0.2148,-0.2162,-0.2164,-0.2165,-0.2173,-0.2176,-0.2179,0,0,0,0,0,0,-0.2083,-0.2114,-0.2121,-0.2152,-0.2172,-0.2182,-0.2189,-0.2193,-0.2191,-0.2178,-0.2165,-0.2161,-0.2165,-0.216,-0.2152,-0.2163,-0.2154,-0.2156,-0.216,-0.2163,-0.2165,-0.2148,-0.2133,0,0,0,0,0,-0.209,-0.2115,-0.2141,-0.2167,-0.2176,-0.2188,-0.2197,-0.2194,-0.2195,-0.2194,-0.2183,-0.2173,-0.2174,-0.217,-0.2168,-0.2176,-0.2167,-0.2184,-0.2186,-0.2188,-0.2175,-0.2169,-0.2169,-0.2171,-0.2171,-0.2171,0,0,-0.2106,-0.2114,-0.2137,-0.2167,-0.2177,-0.2186,-0.219,-0.2204,-0.2202,-0.2192,-0.218,-0.2184,-0.218,-0.218,-0.2182,-0.2174,-0.2186,-0.219,-0.2191,-0.2177,-0.2171,-0.2171,-0.217,-0.2172,-0.2171,-0.2171,0,0,-0.2109,-0.2146,-0.2152,-0.217,-0.218,-0.2189,-0.2199,-0.2211,-0.2207,-0.2211,-0.2197,-0.2201,-0.2204,-0.2194,-0.2193,-0.2211,-0.2202,-0.2222,-0.2212,-0.2208,-0.2207,-0.2206,-0.2205,-0.2204,-0.2218,-0.2218,-0.2218,0,-0.2117,-0.2127,-0.216,-0.2156,-0.2168,-0.2192,-0.2195,-0.2203,-0.2208,-0.2199,-0.2204,-0.2198,-0.2207,-0.2196,-0.2206,-0.2215,-0.2211,-0.2201,-0.2209,-0.2208,-0.2207,-0.2206,-0.2204,-0.2219,-0.2219,-0.2218,-0.2218,0,-0.2118,-0.2123,-0.2129,-0.2135,-0.2157,-0.2169,-0.2186,-0.2192,-0.2197,-0.2193,-0.2189,-0.2197,-0.2183,-0.2206,-0.2214,-0.2214,-0.2214,-0.2215,-0.2198,-0.2207,-0.2206,-0.2204,-0.222,-0.2219,-0.2219,-0.2219,0,0,-0.2137,-0.213,-0.2129,-0.2115,-0.2146,-0.2156,-0.2166,-0.2171,-0.2156,-0.2167,-0.2151,-0.2172,-0.2166,-0.2166,-0.2178,-0.219,-0.2202,-0.2204,-0.2203,-0.2195,-0.2192,-0.2059,-0.2045,-0.2204,-0.2203,-0.2203,-0.2198,0,-0.212,-0.2095,-0.2107,-0.2095,-0.2092,-0.2122,-0.2124,-0.2132,-0.2142,-0.2131,-0.2141,-0.2133,-0.2152,-0.2152,-0.2162,-0.2196,-0.2196,-0.2203,-0.2191,-0.219,-0.2064,-0.2037,-0.186,-0.1828,-0.2196,-0.2196,-0.2196,0,-0.2107,-0.2089,-0.2072,-0.2053,-0.2056,-0.2058,-0.2067,-0.2064,-0.2067,-0.2078,-0.207,-0.2075,-0.2086,-0.2111,-0.2132,-0.2135,-0.2156,-0.2185,-0.2185,-0.2049,-0.2052,-0.1877,-0.1811,-0.1596,-0.2193,-0.2194,-0.2194,0,-0.2082,-0.2059,-0.2038,-0.2042,-0.2038,-0.2032,-0.2029,-0.204,-0.2029,-0.2036,-0.2036,-0.2035,-0.2037,-0.2063,-0.2102,-0.2123,-0.2131,-0.2161,-0.2053,-0.2046,-0.1882,-0.1858,-0.1592,-0.216,-0.216,-0.216,-0.216,0,-0.2054,-0.2029,-0.2019,-0.2009,-0.1973,-0.1994,-0.1964,-0.1967,-0.1975,-0.1946,-0.1986,-0.1969,-0.2028,-0.2033,-0.2079,-0.2036,-0.2095,-0.2029,-0.202,-0.1881,-0.1859,-0.1655,-0.1593,-0.216,-0.216,-0.216,-0.216,0,-0.201,-0.2011,-0.1972,-0.1962,-0.1954,-0.1926,-0.1913,-0.1889,-0.1917,-0.189,-0.189,-0.1918,-0.1911,-0.1951,-0.1997,-0.1978,-0.1863,-0.1955,-0.1783,-0.175,-0.1422,-0.137,-0.1222,-0.1228,-0.1824,-0.182,-0.1817,0,-0.1971,-0.1949,-0.1925,-0.1898,-0.1885,-0.1856,-0.1831,-0.1852,-0.1837,-0.1842,-0.1819,-0.1814,-0.1779,-0.1774,-0.1731,-0.1723,-0.1709,-0.1571,-0.1562,-0.1336,-0.1275,-0.1334,-0.1358,-0.1374,-0.1368,-0.1363,-0.1358,0,-0.1882,-0.1881,-0.1853,-0.1807,-0.1776,-0.1743,-0.1716,-0.1705,-0.1718,-0.1712,-0.1676,-0.1652,-0.1588,-0.1449,-0.1413,-0.1418,-0.1382,-0.146,-0.1267,-0.0906,-0.0914,-0.0936,-0.1464,-0.1312,-0.1316,-0.132,-0.1322,-0.1324,-0.1796,-0.1759,-0.1726,-0.1675,-0.1654,-0.1616,-0.156,-0.1559,-0.1523,-0.1464,-0.1505,-0.1394,-0.1215,-0.1104,-0.106,-0.0784,-0.102,-0.0722,-0.0688,-0.078,-0.0718,-0.1127,-0.0933,-0.0936,-0.0938,-0.0939,-0.0941,0,-0.1653,-0.1626,-0.1584,-0.1523,-0.1475,-0.1501,-0.146,-0.1395,-0.1326,-0.1261,-0.121,-0.0935,-0.0709,-0.0548,-0.0228,-0.0034,-0.0139,0.0031,0.0019,-0.0065,-0.041,-0.0313,0.0078,0.0078,0.0077,0.0077,0.0077,0.0077,-0.1559,-0.1473,-0.1461,-0.1348,-0.1324,-0.1219,-0.118,-0.1108,-0.1032,-0.0825,-0.0639,-0.0547,-0.0214,0.0257,0.0627,0.0645,0.0635,0.0697,0.0564,0.0446,0.0378,0.0313,0.0425,0.0963,0.0964,0.0883,0.0885,0.0886]},{"header":{"parameterUnit":"m.s-1","parameterCategory":2,"la1":30.2991,"la2":30.254,"lo1":-89.0895,"lo2":-89.0444,"dy":0.0017,"dx":0.0017,"nx":28,"ny":28,"refTime":"2025-01-24T09:00:00:Z","depth":"0","parameterNumber":3,"parameterNumberName":"V-component_of_CURRENTS"},"data":[0,0,0,0,0,0,0,0,0,0,0,0,0,0,0,0,0,0,0,0,0,0,0,0,0,0,0,0,0,0,0,0,0,0,0,0,0,0,0,0,0,0,0,0,0,0,0,0,0,0,0,0,0,0,0,0,0,0,-0.1248,-0.1248,0,-0.1262,-0.1262,-0.1262,-0.1194,-0.1192,-0.119,-0.1188,-0.1002,-0.0999,-0.0996,0,0,0,0,0,0,0,0,0,0,0,0,0,-0.104,-0.1045,-0.1248,-0.1248,-0.1248,-0.1262,-0.1262,-0.1262,-0.1194,-0.1192,-0.1189,-0.1187,-0.1003,-0.1,-0.0996,0,0,0,0,0,0,0,0,0,0,0,0,0,-0.1099,-0.1046,-0.1248,-0.1217,-0.1215,-0.1262,-0.1262,-0.1262,-0.1194,-0.1192,-0.1189,-0.1186,-0.1005,-0.1,-0.0995,-0.1021,0,0,-0.098,-0.0978,0,0,0,0,0,0,0,0,-0.1096,-0.1106,-0.1221,-0.1219,-0.1217,-0.1224,-0.1121,-0.1172,-0.1195,-0.12,-0.1188,-0.1185,-0.1061,-0.1052,-0.1061,-0.1012,-0.1004,-0.098,-0.0977,-0.0975,-0.0974,0,0,0,0,0,0,0,-0.1092,-0.1105,-0.1252,-0.1222,-0.1219,-0.1161,-0.1167,-0.113,-0.1141,-0.12,-0.1195,-0.12,-0.1058,-0.1066,-0.1056,-0.1001,-0.098,-0.0976,-0.0973,-0.0971,-0.0934,-0.0935,0,0,0,0,0,0,-0.1104,-0.1103,-0.1251,-0.1252,-0.115,-0.1168,-0.1175,-0.1224,-0.1146,-0.1134,-0.1203,-0.1197,-0.1076,-0.1061,-0.1048,-0.104,-0.0975,-0.0971,-0.0968,-0.0932,-0.0934,-0.0936,0,0,0,0,0,0,-0.11,-0.1119,-0.1251,-0.1175,-0.1188,-0.1175,-0.123,-0.1225,-0.1223,-0.1151,-0.1133,-0.1203,-0.1073,-0.1055,-0.1029,-0.1032,-0.0968,-0.0964,-0.0929,-0.0932,-0.0935,-0.1043,0,0,0,0,0,0,-0.1095,-0.1119,-0.1155,-0.1178,-0.1193,-0.1278,-0.1233,-0.1228,-0.1231,-0.1224,-0.1146,-0.1126,-0.107,-0.1037,-0.1025,-0.1025,-0.096,-0.0927,-0.0931,-0.0934,-0.1037,-0.1049,-0.1059,0,0,0,0,0,-0.1088,-0.1148,-0.1159,-0.1175,-0.1247,-0.128,-0.1282,-0.1259,-0.1234,-0.1244,-0.1202,-0.1128,-0.105,-0.1036,-0.102,-0.1019,-0.0925,-0.093,-0.0934,-0.1032,-0.1047,-0.1059,0,0,0,0,0,0,-0.1076,-0.1148,-0.1159,-0.1239,-0.1258,-0.1268,-0.1285,-0.1269,-0.1251,-0.1236,-0.116,-0.114,-0.1113,-0.1067,-0.1054,-0.1023,-0.0973,-0.0974,-0.1052,-0.1066,-0.1077,-0.1112,-0.0956,0,0,0,0,0,-0.1098,-0.1162,-0.1204,-0.1266,-0.1285,-0.1288,-0.1298,-0.1284,-0.1274,-0.1263,-0.1213,-0.1163,-0.1126,-0.1097,-0.1057,-0.1048,-0.1024,-0.1037,-0.1048,-0.1058,-0.108,-0.1088,-0.1102,-0.095,-0.095,-0.095,0,0,-0.1127,-0.1158,-0.1206,-0.1266,-0.1286,-0.1331,-0.1287,-0.1312,-0.1326,-0.1244,-0.1245,-0.1198,-0.1135,-0.1122,-0.1105,-0.1078,-0.1085,-0.1063,-0.1072,-0.1088,-0.1094,-0.1109,-0.1122,-0.0953,-0.0953,-0.0952,0,0,-0.1172,-0.1234,-0.1288,-0.1311,-0.1336,-0.1357,-0.1367,-0.1381,-0.1363,-0.1376,-0.1312,-0.1288,-0.1235,-0.1196,-0.1168,-0.1225,-0.1147,-0.1193,-0.1272,-0.128,-0.1292,-0.1303,-0.1275,-0.1283,-0.1196,-0.1197,-0.1197,0,-0.1183,-0.1267,-0.1303,-0.1336,-0.1361,-0.1376,-0.1419,-0.1428,-0.1421,-0.1411,-0.1386,-0.1354,-0.1279,-0.1277,-0.1282,-0.1248,-0.1231,-0.122,-0.1295,-0.1305,-0.1315,-0.1283,-0.129,-0.1202,-0.1202,-0.1201,-0.1201,0,-0.1266,-0.1318,-0.135,-0.1418,-0.1451,-0.1492,-0.1516,-0.1527,-0.1521,-0.1521,-0.1521,-0.1473,-0.1452,-0.1417,-0.1357,-0.1381,-0.1338,-0.131,-0.1261,-0.1337,-0.1298,-0.1303,-0.1211,-0.1208,-0.1207,-0.1205,0,0,-0.1298,-0.1393,-0.1396,-0.1419,-0.1489,-0.1518,-0.1566,-0.1604,-0.1607,-0.1635,-0.1648,-0.1619,-0.1605,-0.1576,-0.1512,-0.1507,-0.1526,-0.1436,-0.1434,-0.1409,-0.1523,-0.1462,-0.146,-0.1512,-0.1514,-0.1515,-0.1463,0,-0.1334,-0.1409,-0.1453,-0.1526,-0.1568,-0.1597,-0.1633,-0.166,-0.1667,-0.1683,-0.1687,-0.167,-0.1665,-0.1625,-0.1654,-0.1522,-0.1548,-0.1541,-0.1454,-0.1451,-0.1388,-0.1468,-0.142,-0.1368,-0.1468,-0.1468,-0.1469,0,-0.1366,-0.1414,-0.1488,-0.1545,-0.1568,-0.1614,-0.1656,-0.1686,-0.1722,-0.1712,-0.1772,-0.176,-0.1766,-0.1741,-0.1711,-0.1704,-0.165,-0.1582,-0.1578,-0.1493,-0.1401,-0.1312,-0.1373,-0.134,-0.1476,-0.1476,-0.1475,0,-0.1316,-0.1415,-0.147,-0.1499,-0.1589,-0.1602,-0.1651,-0.1687,-0.1675,-0.1723,-0.1709,-0.179,-0.1744,-0.1772,-0.1681,-0.168,-0.1629,-0.16,-0.1528,-0.152,-0.1449,-0.1433,-0.1472,-0.1636,-0.1636,-0.1637,-0.1637,0,-0.1297,-0.1323,-0.1449,-0.1468,-0.1504,-0.1579,-0.1589,-0.1621,-0.1656,-0.1654,-0.1724,-0.1722,-0.1743,-0.1727,-0.1707,-0.1634,-0.1672,-0.1565,-0.1522,-0.1482,-0.147,-0.141,-0.1402,-0.1634,-0.1635,-0.1635,-0.1636,0,-0.1178,-0.1276,-0.1321,-0.1438,-0.1464,-0.1478,-0.1527,-0.1534,-0.1568,-0.1565,-0.1573,-0.1619,-0.1603,-0.1634,-0.159,-0.1589,-0.151,-0.1528,-0.1465,-0.1417,-0.1316,-0.1314,-0.1362,-0.1235,-0.1441,-0.1439,-0.1438,0,-0.1111,-0.1134,-0.1261,-0.1289,-0.1329,-0.1369,-0.1389,-0.146,-0.1469,-0.1502,-0.1499,-0.1492,-0.1515,-0.1466,-0.146,-0.1456,-0.144,-0.137,-0.1382,-0.133,-0.1296,-0.1352,-0.1243,-0.1315,-0.1312,-0.1311,-0.1309,0,-0.0972,-0.1029,-0.1087,-0.1155,-0.1195,-0.1237,-0.1285,-0.1281,-0.1366,-0.1364,-0.1383,-0.1405,-0.1392,-0.1361,-0.1341,-0.1344,-0.1315,-0.133,-0.1309,-0.1246,-0.128,-0.1126,-0.1302,-0.1293,-0.1295,-0.1296,-0.1297,-0.1297,-0.0853,-0.0869,-0.097,-0.1021,-0.1075,-0.1125,-0.1124,-0.1185,-0.1199,-0.1206,-0.1276,-0.1251,-0.1246,-0.1227,-0.1221,-0.1143,-0.1195,-0.1126,-0.1136,-0.1205,-0.1081,-0.121,-0.1134,-0.1135,-0.1135,-0.1136,-0.1136,0,-0.0725,-0.0787,-0.0832,-0.092,-0.0954,-0.1018,-0.1068,-0.1059,-0.1067,-0.1065,-0.1084,-0.1044,-0.1031,-0.1011,-0.0957,-0.0938,-0.0939,-0.0956,-0.1032,-0.0924,-0.1064,-0.1055,-0.0919,-0.0919,-0.0919,-0.0919,-0.0919,-0.0919,-0.0669,-0.0696,-0.0752,-0.0797,-0.0852,-0.0874,-0.0895,-0.0888,-0.0872,-0.0806,-0.0751,-0.0754,-0.0712,-0.0806,-0.0795,-0.0817,-0.0767,-0.0891,-0.0796,-0.0921,-0.0939,-0.0956,-0.0947,-0.0791,-0.079,-0.0626,-0.0625,-0.0624]}],[{"header":{"parameterUnit":"m.s-1","parameterCategory":2,"la1":30.2991,"la2":30.254,"lo1":-89.0895,"lo2":-89.0444,"dy":0.0017,"dx":0.0017,"nx":28,"ny":28,"refTime":"2025-01-24T09:00:00:Z","depth":"2","parameterNumber":2,"parameterNumberName":"U-component_of_CURRENTS"},"data":[0,0,0,0,0,0,0,0,0,0,0,0,0,0,0,0,0,0,0,0,0,0,0,0,0,0,0,0,0,0,0,0,0,0,0,0,0,0,0,0,0,0,0,0,0,0,0,0,0,0,0,0,0,0,0,0,0,0,-0.1606,-0.1606,0,-0.1589,-0.159,-0.159,-0.1579,-0.1578,-0.1577,-0.1577,-0.1898,-0.1907,-0.1916,0,0,0,0,0,0,0,0,0,0,0,0,0,-0.1684,-0.1683,-0.1606,-0.1606,-0.1605,-0.1589,-0.159,-0.159,-0.1579,-0.1578,-0.1577,-0.1577,-0.1895,-0.1906,-0.1917,0,0,0,0,0,0,0,0,0,0,0,0,0,-0.1662,-0.1682,-0.1606,-0.1593,-0.1592,-0.1589,-0.159,-0.159,-0.1579,-0.1578,-0.1577,-0.1576,-0.1892,-0.1905,-0.1918,-0.2019,0,0,-0.196,-0.1966,0,0,0,0,0,0,0,0,-0.1663,-0.166,-0.1596,-0.1594,-0.1592,-0.158,-0.1734,-0.1749,-0.1579,-0.1589,-0.1577,-0.1576,-0.1821,-0.184,-0.1841,-0.2035,-0.2048,-0.1961,-0.1969,-0.1975,-0.1979,0,0,0,0,0,0,0,-0.1665,-0.1661,-0.1605,-0.1595,-0.1593,-0.1607,-0.1603,-0.1736,-0.1721,-0.1588,-0.1586,-0.1576,-0.1823,-0.1828,-0.185,-0.2053,-0.1961,-0.1973,-0.1981,-0.1987,-0.2218,-0.2216,0,0,0,0,0,0,-0.1654,-0.1662,-0.1605,-0.1604,-0.162,-0.1606,-0.1601,-0.159,-0.1712,-0.1725,-0.1577,-0.1575,-0.1805,-0.1834,-0.1862,-0.1929,-0.1975,-0.1988,-0.1996,-0.222,-0.2217,-0.2215,0,0,0,0,0,0,-0.1656,-0.1649,-0.1606,-0.1629,-0.1623,-0.1604,-0.1592,-0.1589,-0.158,-0.1698,-0.1719,-0.1566,-0.1805,-0.1842,-0.1989,-0.1944,-0.1994,-0.2007,-0.2222,-0.2219,-0.2216,-0.2104,0,0,0,0,0,0,-0.1658,-0.165,-0.1641,-0.1628,-0.1621,-0.1564,-0.1592,-0.159,-0.1573,-0.1571,-0.1698,-0.1726,-0.1808,-0.1968,-0.2002,-0.1964,-0.2017,-0.2225,-0.2221,-0.2217,-0.2111,-0.2098,-0.2087,0,0,0,0,0,-0.1661,-0.166,-0.1641,-0.1634,-0.1608,-0.1561,-0.1558,-0.1548,-0.1573,-0.1543,-0.1671,-0.1721,-0.1963,-0.1981,-0.2021,-0.1985,-0.2227,-0.2222,-0.2218,-0.2116,-0.21,-0.2087,0,0,0,0,0,0,-0.1683,-0.1657,-0.1636,-0.1624,-0.157,-0.1556,-0.156,-0.1542,-0.1611,-0.1668,-0.1762,-0.18,-0.1869,-0.1962,-0.1976,-0.2028,-0.2077,-0.2081,-0.1985,-0.1973,-0.1961,-0.2009,-0.2029,0,0,0,0,0,-0.1682,-0.1681,-0.1626,-0.1612,-0.16,-0.1578,-0.1565,-0.1562,-0.1614,-0.1638,-0.1721,-0.1824,-0.1881,-0.196,-0.2026,-0.2134,-0.2181,-0.211,-0.2098,-0.2088,-0.2147,-0.2168,-0.2164,-0.22,-0.22,-0.22,0,0,-0.1673,-0.1673,-0.166,-0.1617,-0.1607,-0.1576,-0.157,-0.1571,-0.1559,-0.1682,-0.1745,-0.1794,-0.189,-0.1953,-0.1992,-0.2041,-0.2084,-0.2082,-0.2073,-0.214,-0.2163,-0.216,-0.2157,-0.2197,-0.2198,-0.2198,0,0,-0.1677,-0.1672,-0.1666,-0.1631,-0.1614,-0.1602,-0.1589,-0.1579,-0.1588,-0.1651,-0.1696,-0.1745,-0.1872,-0.1908,-0.1949,-0.193,-0.1992,-0.1912,-0.1948,-0.1963,-0.1962,-0.1962,-0.1948,-0.1948,-0.1942,-0.1942,-0.1942,0,-0.1673,-0.1672,-0.1647,-0.1634,-0.1623,-0.1605,-0.1588,-0.1584,-0.1618,-0.1669,-0.1664,-0.1795,-0.1841,-0.1918,-0.1881,-0.1904,-0.1932,-0.1995,-0.1951,-0.1952,-0.1954,-0.1941,-0.1942,-0.1936,-0.1936,-0.1937,-0.1938,0,-0.1654,-0.166,-0.1668,-0.1646,-0.1603,-0.1618,-0.1582,-0.1595,-0.1621,-0.1637,-0.1705,-0.1763,-0.185,-0.1807,-0.1858,-0.1875,-0.1889,-0.19,-0.1992,-0.1944,-0.1931,-0.1935,-0.1927,-0.1929,-0.1931,-0.1933,0,0,-0.1699,-0.166,-0.1687,-0.1692,-0.1643,-0.1637,-0.1618,-0.1629,-0.1682,-0.1693,-0.1747,-0.1778,-0.1824,-0.1871,-0.189,-0.1911,-0.1873,-0.193,-0.1933,-0.1928,-0.1905,-0.1764,-0.1754,-0.189,-0.1891,-0.1892,-0.1867,0,-0.1724,-0.1736,-0.1692,-0.1707,-0.1711,-0.1679,-0.1665,-0.1675,-0.1697,-0.1744,-0.1789,-0.1839,-0.1839,-0.1874,-0.1892,-0.1876,-0.1892,-0.188,-0.1949,-0.1951,-0.1841,-0.1757,-0.1561,-0.1511,-0.1871,-0.1871,-0.1872,0,-0.1765,-0.1778,-0.1782,-0.1798,-0.18,-0.178,-0.1823,-0.1809,-0.1841,-0.1857,-0.1914,-0.1938,-0.1965,-0.1946,-0.1964,-0.1966,-0.195,-0.1933,-0.1932,-0.1869,-0.1819,-0.1632,-0.1505,-0.1878,-0.1878,-0.1877,-0.1877,0,-0.1876,-0.1887,-0.1917,-0.1906,-0.1865,-0.1882,-0.1878,-0.1879,-0.1873,-0.193,-0.1923,-0.2004,-0.1992,-0.2018,-0.1956,-0.1979,-0.1946,-0.1962,-0.1831,-0.182,-0.1706,-0.1682,-0.1992,-0.1992,-0.1992,-0.1992,-0.1992,0,-0.1971,-0.2008,-0.1988,-0.1997,-0.2027,-0.1991,-0.2013,-0.2011,-0.1998,-0.198,-0.2006,-0.1977,-0.2011,-0.1979,-0.1972,-0.1881,-0.1955,-0.1839,-0.1809,-0.1648,-0.1621,-0.201,-0.2012,-0.1991,-0.1992,-0.1992,-0.1992,0,-0.2046,-0.2056,-0.2055,-0.2052,-0.2052,-0.2066,-0.1999,-0.201,-0.2015,-0.1965,-0.1967,-0.1943,-0.1889,-0.189,-0.1879,-0.1847,-0.1807,-0.1765,-0.1552,-0.1496,-0.1678,-0.1675,-0.1644,-0.1639,-0.1635,-0.1631,-0.1628,0,-0.2064,-0.2073,-0.2051,-0.2025,-0.2009,-0.2013,-0.1979,-0.1987,-0.1953,-0.1914,-0.1875,-0.1834,-0.1736,-0.1651,-0.1591,-0.1539,-0.1663,-0.1353,-0.136,-0.1671,-0.1646,-0.1649,-0.1652,-0.1143,-0.1136,-0.113,-0.1126,0,-0.2017,-0.2008,-0.1989,-0.1942,-0.1919,-0.1886,-0.1859,-0.1837,-0.1831,-0.1782,-0.1698,-0.1634,-0.1507,-0.1329,-0.1248,-0.1207,-0.1348,-0.1237,-0.1618,-0.1251,-0.1193,-0.117,-0.119,-0.1077,-0.1082,-0.1085,-0.1088,-0.109,-0.1923,-0.1884,-0.1845,-0.1801,-0.178,-0.1747,-0.1689,-0.167,-0.1607,-0.1505,-0.1511,-0.1335,-0.1243,-0.1001,-0.0893,-0.0833,-0.1002,-0.0966,-0.0986,-0.1011,-0.0948,-0.0885,-0.0697,-0.07,-0.0702,-0.0704,-0.0706,0,-0.1763,-0.1732,-0.1686,-0.163,-0.158,-0.1614,-0.157,-0.1488,-0.1385,-0.1302,-0.1195,-0.0933,-0.0729,-0.0666,-0.0484,-0.0442,-0.046,-0.0405,-0.0444,-0.0492,-0.0534,-0.0451,-0.0066,-0.0065,-0.0063,-0.0062,0,0,-0.1658,-0.1565,-0.1557,-0.1437,-0.141,-0.1307,-0.1271,-0.1169,-0.108,-0.0931,-0.0803,-0.0738,-0.0663,-0.0398,-0.0298,-0.0167,-0.0335,-0.0113,-0.0624,-0.0721,-0.0762,-0.0845,-0.0767,0,0,0,0,0]},{"header":{"parameterUnit":"m.s-1","parameterCategory":2,"la1":30.2991,"la2":30.254,"lo1":-89.0895,"lo2":-89.0444,"dy":0.0017,"dx":0.0017,"nx":28,"ny":28,"refTime":"2025-01-24T09:00:00:Z","depth":"2","parameterNumber":3,"parameterNumberName":"V-component_of_CURRENTS"},"data":[0,0,0,0,0,0,0,0,0,0,0,0,0,0,0,0,0,0,0,0,0,0,0,0,0,0,0,0,0,0,0,0,0,0,0,0,0,0,0,0,0,0,0,0,0,0,0,0,0,0,0,0,0,0,0,0,0,0,-0.0244,-0.0242,0,-0.0099,-0.0098,-0.0096,-0.0038,-0.0038,-0.0038,-0.0038,0.0268,0.0276,0.0284,0,0,0,0,0,0,0,0,0,0,0,0,0,-0.037,-0.0369,-0.0244,-0.0242,-0.0239,-0.0099,-0.0098,-0.0096,-0.0038,-0.0038,-0.0038,-0.0038,0.0265,0.0275,0.0285,0,0,0,0,0,0,0,0,0,0,0,0,0,-0.0284,-0.0369,-0.0244,-0.0191,-0.0184,-0.01,-0.0098,-0.0096,-0.0038,-0.0038,-0.0038,-0.0038,0.0262,0.0274,0.0286,0.0361,0,0,0.0323,0.0329,0,0,0,0,0,0,0,0,-0.0289,-0.028,-0.0201,-0.0194,-0.0187,-0.0083,-0.003,0.0067,-0.0038,-0.0098,-0.0038,-0.0038,0.0168,0.0188,0.0207,0.0375,0.0388,0.0324,0.0332,0.0337,0.034,0,0,0,0,0,0,0,-0.0295,-0.0285,-0.019,-0.0198,-0.019,-0.014,-0.0129,-0.0012,0.0033,-0.0093,-0.0087,-0.0065,0.0172,0.0195,0.0215,0.0393,0.0324,0.0335,0.0342,0.0347,0.0607,0.0607,0,0,0,0,0,0,-0.031,-0.0291,-0.0195,-0.0186,-0.0234,-0.0138,-0.0125,-0.012,0.0028,0.0051,-0.0065,-0.0063,0.0174,0.0201,0.0227,0.028,0.0337,0.0348,0.0355,0.0607,0.0607,0.0606,0,0,0,0,0,0,-0.0314,-0.0304,-0.0201,-0.0231,-0.0214,-0.0136,-0.013,-0.0117,-0.0087,0.0049,0.0073,-0.0048,0.0175,0.0209,0.0315,0.0294,0.0354,0.0365,0.0608,0.0607,0.0607,0.0417,0,0,0,0,0,0,-0.0318,-0.0306,-0.0304,-0.0233,-0.0212,-0.0147,-0.0129,-0.0114,-0.0072,-0.0068,0.0073,0.01,0.0178,0.0295,0.0326,0.0312,0.0374,0.0608,0.0608,0.0607,0.0424,0.041,0.0398,0,0,0,0,0,-0.0324,-0.0321,-0.0305,-0.0292,-0.0214,-0.0145,-0.0131,-0.0077,-0.0071,-0.0053,0.0021,0.0096,0.0312,0.0305,0.0342,0.0331,0.0609,0.0608,0.0607,0.043,0.0413,0.0398,0,0,0,0,0,0,-0.0351,-0.0312,-0.0294,-0.0273,-0.0211,-0.0134,-0.0119,-0.0078,-0.0008,-0.0014,0.0106,0.014,0.0208,0.0311,0.03,0.0403,0.0468,0.0474,0.0321,0.0306,0.0294,0.0313,0.0385,0,0,0,0,0,-0.0362,-0.0367,-0.0296,-0.0276,-0.0262,-0.0192,-0.0158,-0.0124,-0.0053,-0.0024,0.0074,0.0167,0.0233,0.0301,0.0381,0.047,0.0528,0.0483,0.047,0.0458,0.0499,0.0578,0.0575,0.0603,0.0603,0.0603,0,0,-0.0345,-0.0343,-0.0327,-0.0285,-0.025,-0.0211,-0.0174,-0.0138,-0.0106,0.0004,0.007,0.0127,0.0241,0.0298,0.0342,0.0389,0.0456,0.0457,0.0446,0.0495,0.0576,0.0574,0.0571,0.0603,0.0603,0.0603,0,0,-0.034,-0.0342,-0.0342,-0.0315,-0.0277,-0.0233,-0.0223,-0.0149,-0.0129,-0.0054,-0.0005,0.0044,0.0197,0.0246,0.0295,0.0279,0.0367,0.0304,0.0284,0.0355,0.0354,0.0354,0.0303,0.0301,0.0319,0.0318,0.0318,0,-0.0332,-0.0327,-0.0319,-0.0323,-0.0304,-0.0246,-0.0225,-0.0189,-0.0084,-0.0058,-0.0051,0.0108,0.0166,0.0244,0.0205,0.0248,0.0281,0.0318,0.0336,0.0339,0.0342,0.0292,0.0291,0.0309,0.031,0.0311,0.0312,0,-0.0293,-0.0318,-0.0325,-0.0318,-0.0293,-0.0273,-0.0229,-0.0193,-0.0166,-0.0113,-0.0047,0.0022,0.0131,0.0122,0.0155,0.0205,0.0206,0.0283,0.0365,0.0327,0.0276,0.0278,0.0296,0.0299,0.0302,0.0304,0,0,-0.0229,-0.0287,-0.0289,-0.0323,-0.0304,-0.028,-0.0254,-0.0194,-0.0164,-0.0096,-0.0053,0.0004,0.0048,0.0107,0.0149,0.02,0.0152,0.0246,0.0254,0.0176,0.0235,0.0132,0.0124,0.0247,0.0249,0.0251,0.0145,0,-0.0205,-0.0233,-0.0256,-0.0272,-0.0291,-0.0276,-0.025,-0.0202,-0.0156,-0.0101,-0.005,-0.0019,0.0044,0.0038,0.0121,0.0164,0.0174,0.0169,0.0308,0.031,0.0209,0.0132,0.0218,0.0127,0.0148,0.0149,0.0149,0,-0.0182,-0.0203,-0.0237,-0.0305,-0.0305,-0.0312,-0.0279,-0.0254,-0.018,-0.0151,-0.0067,-0.0025,0.0029,0.006,0.0187,0.0191,0.02,0.0225,0.0224,0.0224,0.0217,0.0199,0.0133,0.0155,0.0155,0.0154,0.0154,0,-0.0195,-0.0222,-0.0265,-0.0278,-0.0302,-0.0338,-0.0342,-0.0281,-0.0265,-0.0227,-0.0209,-0.007,-0.0092,0.0055,0.0094,0.0145,0.0198,0.0278,0.0184,0.0172,0.0327,0.0325,0.0343,0.0343,0.0343,0.0343,0.0344,0,-0.0234,-0.0286,-0.0291,-0.0337,-0.0368,-0.0388,-0.0415,-0.0395,-0.0349,-0.0316,-0.0262,-0.022,-0.009,-0.0039,0.0071,0.0114,0.0185,0.0164,0.0162,0.0245,0.0238,0.0376,0.0381,0.0339,0.034,0.0341,0.0342,0,-0.0355,-0.0348,-0.0419,-0.0423,-0.0432,-0.0487,-0.0521,-0.0496,-0.0475,-0.044,-0.0462,-0.0385,-0.0331,-0.0222,-0.01,-0.0008,0.0081,0.0057,0.0061,0.0063,0.0004,0.0001,-0.0019,-0.0023,-0.0026,-0.0029,-0.0031,0,-0.0441,-0.0477,-0.05,-0.052,-0.0571,-0.0615,-0.0619,-0.0594,-0.0561,-0.0504,-0.0488,-0.0507,-0.0416,-0.0333,-0.0252,-0.0152,-0.0077,-0.006,0.0073,-0.0021,-0.0021,-0.0019,-0.0017,0.0151,0.015,0.0149,0.0149,0,-0.0562,-0.0577,-0.0609,-0.0632,-0.0673,-0.0691,-0.0711,-0.0682,-0.0614,-0.0571,-0.0519,-0.0473,-0.0462,-0.0337,-0.032,-0.0211,-0.0044,-0.0076,-0.0112,0.0211,0.0127,0.013,0.0129,0.0144,0.0144,0.0145,0.0145,0.0145,-0.0626,-0.0667,-0.0665,-0.0712,-0.0741,-0.0742,-0.075,-0.0709,-0.0658,-0.0565,-0.0536,-0.0431,-0.0348,-0.0277,-0.0182,-0.0159,-0.0195,-0.0054,-0.0045,-0.0038,-0.0016,-0.0102,-0.0132,-0.0133,-0.0134,-0.0135,-0.0135,0,-0.0608,-0.0649,-0.0706,-0.0739,-0.0771,-0.0783,-0.0755,-0.0711,-0.064,-0.0566,-0.0516,-0.0307,-0.0178,-0.0095,-0.0083,-0.0062,0.0032,0.002,0.018,0.018,0.0182,0.0225,0.0167,0.0168,0.017,0.0171,0,0,-0.0582,-0.0616,-0.0656,-0.071,-0.0751,-0.0747,-0.0723,-0.0679,-0.0614,-0.0505,-0.0413,-0.0325,-0.017,-0.0041,0.0025,0.0078,0.0129,0.0112,-0.014,0.0038,0.0041,0.012,0.0179,0,0,0,0,0]}],[{"header":{"parameterUnit":"m.s-1","parameterCategory":2,"la1":30.2991,"la2":30.254,"lo1":-89.0895,"lo2":-89.0444,"dy":0.0017,"dx":0.0017,"nx":28,"ny":28,"refTime":"2025-01-24T09:00:00:Z","depth":"4","parameterNumber":2,"parameterNumberName":"U-component_of_CURRENTS"},"data":[0,0,0,0,0,0,0,0,0,0,0,0,0,0,0,0,0,0,0,0,0,0,0,0,0,0,0,0,0,0,0,0,0,0,0,0,0,0,0,0,0,0,0,0,0,0,0,0,0,0,0,0,0,0,0,0,0,0,-0.1028,-0.1029,0,-0.1044,-0.1044,-0.1044,-0.1053,-0.1053,-0.1054,-0.1054,-0.1104,-0.1105,-0.1106,0,0,0,0,0,0,0,0,0,0,0,0,0,-0.1024,-0.1024,-0.1028,-0.1029,-0.1029,-0.1044,-0.1044,-0.1044,-0.1053,-0.1053,-0.1054,-0.1054,-0.1104,-0.1105,-0.1106,0,0,0,0,0,0,0,0,0,0,0,0,0,-0.1029,-0.1024,-0.1028,-0.1037,-0.1038,-0.1044,-0.1044,-0.1044,-0.1053,-0.1053,-0.1054,-0.1054,-0.1103,-0.1105,-0.1106,-0.1109,0,0,-0.1111,-0.1112,0,0,0,0,0,0,0,0,-0.1029,-0.1029,-0.1035,-0.1037,-0.1038,-0.1049,-0.1061,-0.1068,-0.1053,-0.1045,-0.1054,-0.1054,-0.109,-0.1093,-0.1091,-0.1112,-0.1114,-0.1112,-0.1113,-0.1113,-0.1114,0,0,0,0,0,0,0,-0.1028,-0.1029,-0.1032,-0.1036,-0.1037,-0.1047,-0.1047,-0.1062,-0.1064,-0.1046,-0.1047,-0.1052,-0.1091,-0.1089,-0.1093,-0.1115,-0.1112,-0.1113,-0.1114,-0.1115,-0.1157,-0.1157,0,0,0,0,0,0,-0.103,-0.1028,-0.1032,-0.1033,-0.1037,-0.1046,-0.1047,-0.1043,-0.1063,-0.1067,-0.1052,-0.1053,-0.1086,-0.1091,-0.1094,-0.1135,-0.1113,-0.1115,-0.1116,-0.1157,-0.1157,-0.1157,0,0,0,0,0,0,-0.1029,-0.1029,-0.1031,-0.1033,-0.1034,-0.1046,-0.1042,-0.1043,-0.1056,-0.1068,-0.1072,-0.1065,-0.1087,-0.1092,-0.1108,-0.1136,-0.1116,-0.1117,-0.1157,-0.1157,-0.1157,-0.1194,0,0,0,0,0,0,-0.1029,-0.1029,-0.1031,-0.1033,-0.1034,-0.104,-0.1042,-0.1043,-0.1059,-0.1061,-0.1081,-0.1085,-0.1088,-0.1105,-0.1109,-0.1138,-0.1118,-0.1157,-0.1157,-0.1157,-0.1193,-0.1196,-0.1198,0,0,0,0,0,-0.1028,-0.1024,-0.103,-0.1031,-0.1035,-0.1041,-0.1042,-0.105,-0.106,-0.1064,-0.1072,-0.1085,-0.111,-0.1106,-0.1111,-0.1141,-0.1157,-0.1157,-0.1157,-0.1192,-0.1195,-0.1198,0,0,0,0,0,0,-0.1024,-0.1025,-0.1032,-0.1029,-0.104,-0.1043,-0.1052,-0.1059,-0.1069,-0.1076,-0.1085,-0.1089,-0.1117,-0.1115,-0.1111,-0.1151,-0.1137,-0.1138,-0.1161,-0.1164,-0.1167,-0.1151,-0.112,0,0,0,0,0,-0.1025,-0.1024,-0.103,-0.1032,-0.1038,-0.105,-0.1056,-0.1064,-0.1072,-0.1077,-0.109,-0.1103,-0.1119,-0.113,-0.1142,-0.1161,-0.1141,-0.1182,-0.1185,-0.1187,-0.1175,-0.1161,-0.1162,-0.1158,-0.1158,-0.1158,0,0,-0.1025,-0.1027,-0.1027,-0.1032,-0.1043,-0.1054,-0.1054,-0.107,-0.1083,-0.1082,-0.1106,-0.1117,-0.1126,-0.1148,-0.1161,-0.1153,-0.1178,-0.1188,-0.119,-0.1176,-0.1162,-0.1162,-0.1162,-0.1159,-0.1159,-0.1159,0,0,-0.1024,-0.1029,-0.1028,-0.1041,-0.1059,-0.1066,-0.1075,-0.1088,-0.1098,-0.1117,-0.1124,-0.1142,-0.1166,-0.1174,-0.1182,-0.1203,-0.1194,-0.1217,-0.1219,-0.1207,-0.1207,-0.1207,-0.1183,-0.1181,-0.1216,-0.1216,-0.1216,0,-0.1029,-0.1027,-0.1032,-0.1042,-0.1056,-0.1075,-0.1087,-0.11,-0.1117,-0.1121,-0.113,-0.1157,-0.1177,-0.1195,-0.1205,-0.1213,-0.1193,-0.1212,-0.121,-0.121,-0.1209,-0.1185,-0.1182,-0.1218,-0.1218,-0.1218,-0.1218,0,-0.1021,-0.1036,-0.1042,-0.106,-0.1073,-0.109,-0.111,-0.1125,-0.1145,-0.1151,-0.1175,-0.1189,-0.1196,-0.122,-0.1223,-0.1233,-0.1217,-0.1219,-0.1204,-0.1212,-0.1186,-0.1182,-0.1221,-0.122,-0.122,-0.1219,0,0,-0.099,-0.103,-0.1032,-0.1052,-0.1087,-0.1094,-0.1123,-0.1139,-0.1143,-0.1173,-0.1171,-0.1217,-0.1213,-0.122,-0.1232,-0.1231,-0.1224,-0.1223,-0.1221,-0.1201,-0.1182,-0.1073,-0.1058,-0.1224,-0.1224,-0.1223,-0.1167,0,-0.0988,-0.1011,-0.1029,-0.1061,-0.1078,-0.1109,-0.1125,-0.1144,-0.1157,-0.1158,-0.1183,-0.1189,-0.1217,-0.1218,-0.1224,-0.1218,-0.1213,-0.1238,-0.1175,-0.1172,-0.1077,-0.105,-0.1222,-0.1164,-0.1163,-0.1162,-0.1162,0,-0.0965,-0.0989,-0.1018,-0.1061,-0.1068,-0.1089,-0.1108,-0.1125,-0.1134,-0.114,-0.115,-0.1157,-0.1167,-0.1185,-0.1177,-0.1189,-0.1184,-0.1184,-0.1182,-0.1059,-0.1055,-0.1153,-0.1154,-0.1155,-0.1155,-0.1156,-0.1156,0,-0.0925,-0.0975,-0.1,-0.1019,-0.1068,-0.1083,-0.1102,-0.1116,-0.1115,-0.112,-0.1107,-0.1122,-0.111,-0.1121,-0.1124,-0.1146,-0.1099,-0.1127,-0.1026,-0.1019,-0.1121,-0.1122,-0.1113,-0.1113,-0.1113,-0.1113,-0.1113,0,-0.0899,-0.0923,-0.0988,-0.1001,-0.1018,-0.106,-0.1061,-0.1076,-0.108,-0.1061,-0.1089,-0.1061,-0.109,-0.1071,-0.1094,-0.1026,-0.1071,-0.1004,-0.0988,-0.1138,-0.1142,-0.1118,-0.112,-0.1111,-0.1111,-0.1112,-0.1112,0,-0.0848,-0.0894,-0.0927,-0.0985,-0.1001,-0.1009,-0.1036,-0.1026,-0.104,-0.1013,-0.1011,-0.0998,-0.0951,-0.097,-0.096,-0.0953,-0.093,-0.0902,-0.1041,-0.1038,-0.087,-0.0874,-0.0771,-0.0766,-0.0763,-0.0759,-0.0757,0,-0.0826,-0.0842,-0.0903,-0.0913,-0.0942,-0.0964,-0.0967,-0.0997,-0.0986,-0.0966,-0.0941,-0.0888,-0.0876,-0.0768,-0.0801,-0.079,-0.08,-0.079,-0.0847,-0.0835,-0.083,-0.0841,-0.085,-0.0751,-0.075,-0.0749,-0.0748,0,-0.0785,-0.0812,-0.083,-0.0851,-0.0868,-0.0878,-0.0893,-0.0877,-0.0897,-0.0915,-0.0837,-0.0793,-0.0713,-0.0686,-0.0659,-0.0675,-0.0798,-0.075,-0.0759,-0.0814,-0.0809,-0.0811,-0.0824,-0.0734,-0.0736,-0.0738,-0.0738,0,-0.0749,-0.0741,-0.0763,-0.0774,-0.0789,-0.0782,-0.0806,-0.079,-0.0781,-0.0783,-0.0747,-0.0705,-0.0695,-0.0622,-0.0616,-0.0588,-0.0595,-0.0619,-0.0635,-0.065,-0.0635,-0.0613,-0.044,0,0,0,0,0,-0.071,-0.0686,-0.0685,-0.068,-0.0695,-0.0707,-0.0744,-0.0772,-0.0798,-0.0723,-0.0736,-0.0668,-0.0591,-0.0569,-0.0513,-0.0556,-0.0603,-0.0491,-0.0642,-0.0661,-0.0676,-0.0669,0,0,0,0,0,0,-0.0673,-0.0668,-0.0655,-0.0605,-0.0586,-0.059,-0.0616,-0.0647,-0.0617,-0.0645,-0.0603,-0.0621,-0.0553,-0.0594,-0.0489,-0.0485,-0.057,-0.0476,-0.0474,-0.0652,-0.0666,-0.0678,-0.0676,0,0,0,0,0]},{"header":{"parameterUnit":"m.s-1","parameterCategory":2,"la1":30.2991,"la2":30.254,"lo1":-89.0895,"lo2":-89.0444,"dy":0.0017,"dx":0.0017,"nx":28,"ny":28,"refTime":"2025-01-24T09:00:00:Z","depth":"4","parameterNumber":3,"parameterNumberName":"V-component_of_CURRENTS"},"data":[0,0,0,0,0,0,0,0,0,0,0,0,0,0,0,0,0,0,0,0,0,0,0,0,0,0,0,0,0,0,0,0,0,0,0,0,0,0,0,0,0,0,0,0,0,0,0,0,0,0,0,0,0,0,0,0,0,0,-0.0102,-0.0102,0,-0.009,-0.009,-0.009,-0.0076,-0.0076,-0.0076,-0.0076,-0.0057,-0.0057,-0.0057,0,0,0,0,0,0,0,0,0,0,0,0,0,-0.0134,-0.0133,-0.0102,-0.0102,-0.0101,-0.009,-0.009,-0.009,-0.0077,-0.0076,-0.0076,-0.0075,-0.0057,-0.0057,-0.0057,0,0,0,0,0,0,0,0,0,0,0,0,0,-0.0122,-0.0133,-0.0102,-0.0092,-0.0091,-0.009,-0.009,-0.009,-0.0077,-0.0076,-0.0076,-0.0075,-0.0057,-0.0057,-0.0057,-0.0064,0,0,-0.0056,-0.0055,0,0,0,0,0,0,0,0,-0.0123,-0.0121,-0.0094,-0.0093,-0.0092,-0.0083,-0.0094,-0.008,-0.0077,-0.0084,-0.0076,-0.0075,-0.0065,-0.0064,-0.0064,-0.0063,-0.0062,-0.0056,-0.0055,-0.0055,-0.0055,0,0,0,0,0,0,0,-0.0123,-0.0121,-0.0098,-0.0094,-0.0092,-0.0096,-0.0093,-0.0092,-0.0078,-0.0083,-0.0082,-0.0078,-0.0064,-0.0065,-0.0064,-0.0062,-0.0056,-0.0055,-0.0055,-0.0055,-0.0072,-0.0073,0,0,0,0,0,0,-0.0121,-0.0122,-0.0099,-0.0098,-0.0105,-0.0095,-0.0093,-0.0087,-0.0078,-0.0076,-0.0079,-0.0078,-0.0065,-0.0064,-0.0063,-0.0065,-0.0055,-0.0055,-0.0055,-0.0071,-0.0072,-0.0073,0,0,0,0,0,0,-0.0122,-0.0119,-0.0099,-0.0109,-0.0106,-0.0095,-0.0089,-0.0087,-0.0085,-0.0075,-0.0072,-0.0077,-0.0065,-0.0064,-0.0067,-0.0064,-0.0055,-0.0055,-0.0071,-0.0072,-0.0073,-0.0072,0,0,0,0,0,0,-0.0123,-0.012,-0.0116,-0.0109,-0.0106,-0.0094,-0.0089,-0.0087,-0.0083,-0.0082,-0.0073,-0.0071,-0.0065,-0.0068,-0.0067,-0.0063,-0.0054,-0.007,-0.0071,-0.0072,-0.0071,-0.0073,-0.0074,0,0,0,0,0,-0.0124,-0.0114,-0.0115,-0.0113,-0.01,-0.0094,-0.0093,-0.0084,-0.0083,-0.0081,-0.0083,-0.0071,-0.0075,-0.0068,-0.0067,-0.0063,-0.0069,-0.0071,-0.0072,-0.007,-0.0072,-0.0074,0,0,0,0,0,0,-0.0117,-0.0112,-0.0113,-0.0099,-0.0097,-0.0091,-0.0086,-0.0085,-0.0086,-0.0085,-0.008,-0.0078,-0.0078,-0.0078,-0.0071,-0.0074,-0.007,-0.0071,-0.0069,-0.0071,-0.0072,-0.0084,-0.0054,0,0,0,0,0,-0.0116,-0.0114,-0.0108,-0.0099,-0.0097,-0.0095,-0.0092,-0.0088,-0.0087,-0.0086,-0.0085,-0.0085,-0.0085,-0.0083,-0.0083,-0.0086,-0.007,-0.0084,-0.0086,-0.0087,-0.0097,-0.0069,-0.0068,-0.0078,-0.0078,-0.0078,0,0,-0.0109,-0.0108,-0.0104,-0.0098,-0.0097,-0.01,-0.0092,-0.0086,-0.0092,-0.0084,-0.0094,-0.0089,-0.0088,-0.009,-0.009,-0.0087,-0.0074,-0.0088,-0.0089,-0.01,-0.007,-0.0069,-0.0068,-0.0079,-0.0078,-0.0078,0,0,-0.0102,-0.0095,-0.0096,-0.0098,-0.0097,-0.0097,-0.0097,-0.0095,-0.0096,-0.0105,-0.0101,-0.0098,-0.0103,-0.0098,-0.0097,-0.011,-0.0082,-0.0108,-0.0123,-0.0094,-0.0093,-0.0091,-0.0056,-0.0052,-0.0109,-0.0109,-0.0109,0,-0.0096,-0.0098,-0.0093,-0.01,-0.0104,-0.0099,-0.0105,-0.0107,-0.0109,-0.0119,-0.0109,-0.0121,-0.0107,-0.0115,-0.0115,-0.011,-0.009,-0.0112,-0.0094,-0.0093,-0.0091,-0.0056,-0.0051,-0.0109,-0.0109,-0.0109,-0.0109,0,-0.0096,-0.01,-0.01,-0.0113,-0.0114,-0.0116,-0.012,-0.0128,-0.0131,-0.0139,-0.0149,-0.0135,-0.0146,-0.0133,-0.0125,-0.0115,-0.0101,-0.0095,-0.0085,-0.009,-0.0052,-0.0047,-0.0109,-0.0109,-0.0109,-0.0109,0,0,-0.008,-0.0098,-0.01,-0.012,-0.0124,-0.0132,-0.0141,-0.0158,-0.0181,-0.0174,-0.0202,-0.0182,-0.0179,-0.0179,-0.0163,-0.0134,-0.0088,-0.0111,-0.0109,-0.0068,-0.0018,-0.0008,-0.0001,-0.0075,-0.0074,-0.0074,0.001,0,-0.0086,-0.011,-0.0113,-0.0141,-0.0156,-0.0162,-0.0179,-0.0193,-0.0203,-0.023,-0.0215,-0.0231,-0.0196,-0.0199,-0.0165,-0.013,-0.0077,-0.0111,-0.0028,-0.0026,-0.0009,0.0004,-0.0072,0.0014,0.0015,0.0016,0.0016,0,-0.0092,-0.011,-0.0136,-0.0179,-0.0186,-0.0201,-0.024,-0.0254,-0.0279,-0.0288,-0.0295,-0.0292,-0.0275,-0.0231,-0.0154,-0.0179,-0.0092,-0.0043,-0.0038,-0.003,-0.0007,0.0015,0.0026,0.0025,0.0025,0.0024,0.0023,0,-0.0105,-0.0134,-0.0162,-0.0173,-0.0209,-0.0228,-0.0248,-0.0274,-0.03,-0.0327,-0.0347,-0.0335,-0.0334,-0.0247,-0.0154,-0.015,-0.0054,-0.0036,0.0067,0.0069,0.0036,0.0033,0.0063,0.0063,0.0063,0.0063,0.0063,0,-0.0123,-0.0153,-0.0175,-0.0196,-0.0244,-0.0252,-0.0302,-0.0324,-0.0352,-0.0382,-0.0378,-0.0388,-0.0334,-0.0281,-0.0173,-0.0054,-0.0063,0.0065,0.0089,0.0035,0.0031,0.0041,0.0037,0.0066,0.0065,0.0065,0.0064,0,-0.0152,-0.0161,-0.0203,-0.0238,-0.0255,-0.0291,-0.0341,-0.0376,-0.0391,-0.0426,-0.0436,-0.0438,-0.0377,-0.03,-0.0172,-0.0084,0.0035,0.0104,0.0035,0.0054,0.0148,0.0144,0.0208,0.0209,0.021,0.0211,0.0212,0,-0.018,-0.0196,-0.0239,-0.0269,-0.0291,-0.0338,-0.0373,-0.0398,-0.0422,-0.0439,-0.0455,-0.0428,-0.0407,-0.0238,-0.015,0.0029,0.008,0.0148,0.0156,0.0145,0.0163,0.0156,0.0151,0.0213,0.0213,0.0213,0.0214,0,-0.0232,-0.0236,-0.0272,-0.0319,-0.0359,-0.0406,-0.0445,-0.0459,-0.0471,-0.0487,-0.0453,-0.0384,-0.0322,-0.0224,-0.0098,0.0045,0.0085,0.0157,0.0157,0.0166,0.0152,0.0167,0.016,0.0217,0.0216,0.0216,0.0216,0,-0.0276,-0.0305,-0.0334,-0.0377,-0.0428,-0.0457,-0.0471,-0.0474,-0.0487,-0.0473,-0.0456,-0.0387,-0.0359,-0.021,-0.0086,0.0022,0.007,0.0137,0.0139,0.0137,0.0085,0.0054,0.0112,0,0,0,0,0,-0.0319,-0.0348,-0.0392,-0.044,-0.0483,-0.0501,-0.0519,-0.0515,-0.0505,-0.0472,-0.0456,-0.038,-0.0228,-0.0185,-0.007,-0.0072,0.0075,0.0068,0.015,0.0233,0.0229,0.018,0,0,0,0,0,0,-0.0356,-0.0398,-0.0402,-0.0473,-0.0508,-0.0554,-0.0554,-0.054,-0.0507,-0.048,-0.0409,-0.0345,-0.0217,-0.0309,-0.0075,-0.0045,0.0031,0.0134,0.0137,0.0235,0.0232,0.0229,0.0177,0,0,0,0,0]}]]